Satellite: AO-27
Catalog number: 22825
Epoch time:      06109.91799768
Element set:    0381
Inclination:      098.2799 deg
RA of node:       094.6182 deg
Eccentricity:    0.0009498
Arg of perigee:   074.8143 deg
Mean anomaly:     285.4091 deg
Mean motion:   14.29168900 rev/day
Decay rate:        6.0e-08 rev/day^2
Epoch rev:           65503
Checksum:              349

Satellite: IO-26
Catalog number: 22826
Epoch time:      06109.96772242
Element set:    0074
Inclination:      098.2760 deg
RA of node:       095.8895 deg
Eccentricity:    0.0009975
Arg of perigee:   071.6735 deg
Mean anomaly:     288.5528 deg
Mean motion:   14.29412072 rev/day
Decay rate:        2.3e-07 rev/day^2
Epoch rev:           65511
Checksum:              333

Satellite: PO-28
Catalog number: 22829
Epoch time:      06110.54943943
Element set:     353
Inclination:      098.2655 deg
RA of node:       097.6462 deg
Eccentricity:    0.0010668
Arg of perigee:   049.3087 deg
Mean anomaly:     310.9027 deg
Mean motion:   14.30104539 rev/day
Decay rate:       1.76e-06 rev/day^2
Epoch rev:           65540
Checksum:              310

Satellite: TO-31
Catalog number: 25396
Epoch time:      06110.60427675
Element set:     508
Inclination:      098.4827 deg
RA of node:       172.9557 deg
Eccentricity:    0.0002967
Arg of perigee:   024.9026 deg
Mean anomaly:     335.2309 deg
Mean motion:   14.23701918 rev/day
Decay rate:        3.0e-07 rev/day^2
Epoch rev:           40415
Checksum:              297

Satellite: GO-32
Catalog number: 25397
Epoch time:      06110.60646802
Element set:     994
Inclination:      098.4719 deg
RA of node:       169.8350 deg
Eccentricity:    0.0001767
Arg of perigee:   054.8820 deg
Mean anomaly:     305.2610 deg
Mean motion:   14.23102787 rev/day
Decay rate:        2.7e-07 rev/day^2
Epoch rev:           40405
Checksum:              296

Satellite: UO-36
Catalog number: 25693
Epoch time:      06109.32980791
Element set:    0020
Inclination:      064.5584 deg
RA of node:       063.4841 deg
Eccentricity:    0.0011860
Arg of perigee:   335.7760 deg
Mean anomaly:     024.2779 deg
Mean motion:   14.78588765 rev/day
Decay rate:       -9.0e-07 rev/day^2
Epoch rev:           37708
Checksum:              332

Satellite: MO-46
Catalog number: 26548
Epoch time:      06109.84512607
Element set:     470
Inclination:      064.5576 deg
RA of node:       052.1860 deg
Eccentricity:    0.0051009
Arg of perigee:   255.5554 deg
Mean anomaly:     103.9882 deg
Mean motion:   14.82950391 rev/day
Decay rate:       1.03e-06 rev/day^2
Epoch rev:           30075
Checksum:              298

Satellite: NO-44
Catalog number: 26931
Epoch time:      06110.62589057
Element set:     284
Inclination:      067.0513 deg
RA of node:       155.9476 deg
Eccentricity:    0.0007438
Arg of perigee:   262.2028 deg
Mean anomaly:     097.8392 deg
Mean motion:   14.29434605 rev/day
Decay rate:        3.4e-07 rev/day^2
Epoch rev:           23770
Checksum:              309

Satellite: SO-50
Catalog number: 27607
Epoch time:      06109.77199815
Element set:    0998
Inclination:      064.5578 deg
RA of node:       290.4034 deg
Eccentricity:    0.0049706
Arg of perigee:   166.7934 deg
Mean anomaly:     193.4470 deg
Mean motion:   14.71121985 rev/day
Decay rate:        5.4e-07 rev/day^2
Epoch rev:           17883
Checksum:              349

Satellite: CO-57
Catalog number: 27848
Epoch time:      06110.58063594
Element set:     707
Inclination:      098.7202 deg
RA of node:       118.9979 deg
Eccentricity:    0.0009030
Arg of perigee:   230.7583 deg
Mean anomaly:     129.2791 deg
Mean motion:   14.20256737 rev/day
Decay rate:        6.0e-07 rev/day^2
Epoch rev:           14546
Checksum:              320

Satellite: AO-51
Catalog number: 28375
Epoch time:      06109.79997271
Element set:     510
Inclination:      098.1714 deg
RA of node:       164.4838 deg
Eccentricity:    0.0085239
Arg of perigee:   024.5928 deg
Mean anomaly:     335.9296 deg
Mean motion:   14.40513235 rev/day
Decay rate:        3.5e-07 rev/day^2
Epoch rev:            9475
Checksum:              334

Satellite: XO-53
Catalog number: 28894
Epoch time:      06110.72301248
Element set:     526
Inclination:      098.1718 deg
RA of node:       009.9326 deg
Eccentricity:    0.0017864
Arg of perigee:   356.0916 deg
Mean anomaly:     004.0133 deg
Mean motion:   14.59458576 rev/day
Decay rate:       2.16e-06 rev/day^2
Epoch rev:            2559
Checksum:              311

Satellite: CO-56
Catalog number: 28941
Epoch time:      06109.90719284
Element set:      68
Inclination:      098.1796 deg
RA of node:       123.4271 deg
Eccentricity:    0.0287939
Arg of perigee:   311.5465 deg
Mean anomaly:     046.1383 deg
Mean motion:   15.22626728 rev/day
Decay rate:     1.8707e-04 rev/day^2
Epoch rev:             867
Checksum:              346

/EX
SB KEPS @ AMSAT  $ORB06110.W
Orbital Elements  06110.WEATHER

HR AMSAT ORBITAL ELEMENTS FOR WEATHER SATELLITES
FROM WA5QGD FORT WORTH,TX April 20, 2006
Send SUBSCRIBE KEPS/UNSUBSCRIBE KEPS to majordomo@amsat.org only
BID: ORB06110.W
TO ALL RADIO AMATEURS BT

Satellite: NOAA-10
Catalog number: 16969
Epoch time:      06110.52030684
Element set:     176
Inclination:      098.7636 deg
RA of node:       122.0256 deg
Eccentricity:    0.0012040
Arg of perigee:   322.8385 deg
Mean anomaly:     037.1958 deg
Mean motion:   14.27291238 rev/day
Decay rate:        1.0e-07 rev/day^2
Epoch rev:            1893
Checksum:              282

